Simultaneous Nadir Overpasses (SNOs) Predictions

Prediction of SNOs between GOES-15 and LANDSAT-8 Satellite Orbit:

Table of predicted SNOs for the next 14.0 days since TLE Epoch: 8/26/2023
Index Date Time (GOES-15) GOES-15 Lat,Lon LANDSAT-8 Lat,Lon Distance(km) Time Diff (sec)
1 08/27/2023 13:03:10 0.21, 133.29 0.98, 136.81 400.65 80
2 08/28/2023 01:27:07 -0.24, 132.68 -0.03, 131.62 119.59 80
3 08/30/2023 01:12:22 -0.22, 130.61 -1.05, 134.50 441.69 80
4 08/30/2023 13:36:28 0.26, 130.16 0.06, 129.28 99.58 80
5 09/01/2023 13:21:43 0.24, 128.08 1.09, 132.16 463.17 80
6 09/02/2023 01:45:41 -0.27, 127.46 -0.15, 126.97 56.32 80
7 09/04/2023 13:55:02 0.28, 124.91 0.23, 124.63 32.32 80
8 09/07/2023 02:01:34 -0.28, 122.20 -0.30, 122.32 13.74 80
